Regional Weather Roundup
Issued by NWS

Home | Current Version | Previous Version | Graphics & Text | Print | Product List | Glossary On
Versions: 1 2 3 4 5 6 7 8 9 10 11 12 13 14 15 16 17 18 19 20 21 22 23 24 25 26 27 28 29 30 31 32 33 34 35 36 37 38 39 40 41 42 43 44 45 46 47 48 49 50
000
ASUS43 KOAX 141802
RWRNE

WEATHER ROUNDUP FOR NEBRASKA
NATIONAL WEATHER SERVICE OMAHA NE
100 PM CDT SUN SEP 14 2014

NOTES: SATELLITE DATA IS BEING USED TO AUGMENT CLOUD COVER ABOVE
       12000 FEET.
       "FAIR" INDICATES FEW OR NO CLOUDS BELOW 12,000 FEET WITH NO
       SIGNIFICANT WEATHER AND/OR OBSTRUCTIONS TO VISIBILITY.

  * THESE STATIONS DO NOT REPORT WEATHER SUCH AS RAIN...SNOW OR FOG.

NEZ001>004-019>022-054>056-141900-
NEBRASKA PANHANDLE

CITY           SKY/WX    TMP DP  RH WIND       PRES   REMARKS
SCOTTSBLUFF    CLOUDY    52  48  86 CALM      30.08F
6HR MIN TEMP:  44; 6HR MAX TEMP:  52;

ALLIANCE       PTSUNNY   59  51  75 SE6       30.07F
6HR MIN TEMP:  40; 6HR MAX TEMP:  60;

CHADRON        CLOUDY    54  42  64 NE7       30.11F
6HR MIN TEMP:  37; 6HR MAX TEMP:  54;

KIMBALL        SUNNY     70  48  45 S7        30.05F
SIDNEY         MOSUNNY   65  51  60 VRB6      30.07F
6HR MIN TEMP:  44; 6HR MAX TEMP:  65;

$$

NEZ057>060-069>072-079>082-141900-
SOUTHWEST NEBRASKA

CITY           SKY/WX    TMP DP  RH WIND       PRES   REMARKS
NORTH PLATTE   SUNNY     65  51  60 E12       30.08F
6HR MIN TEMP:  37; 6HR MAX TEMP:  65;

IMPERIAL       SUNNY     68  53  58 SE15      30.06F
6HR MIN TEMP:  40; 6HR MAX TEMP:  69;

LEXINGTON      MOSUNNY   63  53  70 SE6       30.13S
MCCOOK         SUNNY     68  53  58 SE14      30.10F
6HR MIN TEMP:  39; 6HR MAX TEMP:  68;

OGALLALA       MOSUNNY   68  55  63 SE10      30.05F
$$

NEZ005>010-023>029-035>040-094-141900-
NORTH CENTRAL NEBRASKA

CITY           SKY/WX    TMP DP  RH WIND       PRES   REMARKS
VALENTINE      SUNNY     62  41  46 E10G17    30.14R
6HR MIN TEMP:  38; 6HR MAX TEMP:  62;

AINSWORTH      SUNNY     59  43  54 E16       30.11F
BROKEN BOW     SUNNY     66  49  54 S16G24    30.11F
6HR MIN TEMP:  36; 6HR MAX TEMP:  67;

O`NEILL        SUNNY     60  46  60 E9G16     30.15F
ORD            SUNNY     64  49  57 SE13G18   30.12F
6HR MIN TEMP:  37; 6HR MAX TEMP:  64;

THEDFORD       MOSUNNY   66  50  54 SE17G24   30.08F
$$

NEZ041-046>049-061>064-073>077-083>087-141900-
SOUTH CENTRAL NEBRASKA

CITY           SKY/WX    TMP DP  RH WIND       PRES   REMARKS
GRAND ISLAND   CLOUDY    66  51  58 SE8       30.15F
6HR MIN TEMP:  40; 6HR MAX TEMP:  67;

AURORA         SUNNY     67  49  52 S7        30.15F
HASTINGS       MOSUNNY   67  51  56 SE9       30.14F
6HR MIN TEMP:  45; 6HR MAX TEMP:  68;

HEBRON         SUNNY     70  48  46 S10       30.15F
HOLDREGE       MOSUNNY   67  51  57 SE15G21   30.13F
KEARNEY *      MOSUNNY   66  54  63 SE10      30.14F
YORK           SUNNY     66  50  55 S8        30.16F
$$

NEZ011>018-030>034-042>045-141900-
NORTHEAST NEBRASKA

CITY           SKY/WX    TMP DP  RH WIND       PRES   REMARKS
NORFOLK        PTSUNNY   62  47  57 S5        30.16F
6HR MIN TEMP:  39; 6HR MAX TEMP:  62;

ALBION         MOSUNNY   62  49  61 SE7       30.16F
BLAIR          MOSUNNY   68  49  50 S8        30.18F
COLUMBUS *     MOSUNNY   66  48  52 SE7       30.17F
FREMONT        MOSUNNY   67  48  50 CALM      30.17F
TEKAMAH        PTSUNNY   66  50  56 VRB5      30.19F
6HR MIN TEMP:  43; 6HR MAX TEMP:  66;

WAYNE          PTSUNNY   63  48  57 S5        30.17F
$$

NEZ050>053-065>068-078-088>093-141900-
SOUTHEAST NEBRASKA

CITY           SKY/WX    TMP DP  RH WIND       PRES   REMARKS
LINCOLN        SUNNY     69  49  48 SE7       30.18F
6HR MIN TEMP:  45; 6HR MAX TEMP:  69;

OMAHA EPPLEY   MOSUNNY   67  48  50 S7        30.18F
6HR MIN TEMP:  50; 6HR MAX TEMP:  67;

BEATRICE       SUNNY     68  49  50 SE7       30.17F
FALLS CITY     SUNNY     71  50  47 VRB6      30.18F
6HR MIN TEMP:  51; 6HR MAX TEMP:  71;

NEBRASKA CITY  MOSUNNY   68  40  36 S8        30.19F
PLATTSMOUTH    SUNNY     67  47  48 S6        30.19F
$$

NEZ044-045-051>053-067-141900-
OMAHA AREA

CITY           SKY/WX    TMP DP  RH WIND       PRES   REMARKS
OMAHA EPPLEY   MOSUNNY   67  48  50 S7        30.18F
6HR MIN TEMP:  50; 6HR MAX TEMP:  67;

BLAIR          MOSUNNY   68  49  50 S8        30.18F
FREMONT        MOSUNNY   67  48  50 CALM      30.17F
OFFUTT AFB     SUNNY     68  51  53 S7        30.18F
PLATTSMOUTH    SUNNY     67  47  48 S6        30.19F
WAHOO          FAIR      69  46  43 CALM      30.17F
$$



USA.gov is the U.S. government's official web portal to all federal, state and local government web resources and services.